STARLINK-37507, 68916

Orbit data source: Space-Track

STARLINK-37507, 68916 is a payload satellite owned by SpaceX/Seattle (US) in SSO that was launched on Thu, 30 Apr 2026 UTC via an FALCON 9 launch vehicle from the Air Force Western Test Range (AFWTR). Payload-class satellites include a variety of spacecraft equipped with specific instruments for various scientific and technological missions. These include communications satellites like Starlink; space stations such as the ISS; scientific satellites like the Hubble; Earth observation satellites from companies like Planet Labs, Umbra, and HawkEye 360; GPS; miniature CubeSats for education and research; and military/defense satellites.

Loading next visibility...
Identifier
68916, 2026-097X
Orbit
SSO
Country
Flag of USUS
Related business
Manufacturer
SpaceX/Seattle
Mission
Operational spacecraft
Bus & Motor
STARLINK V2MO, Unknown motor
Mass
575 kg wet, ~530 kg dry
Launch date (UTC)
2026-04-30 (3 weeks ago)
Launch vehicle
FALCON 9
Launch site
Air Force Western Test Range (AFWTR)
Object type
Payload
Rocket body
Debris
Shape & HBR
Unknown
Radar Cross Section
RCS unknown

Expand to show TLE details & history
Last TLE update: 9 hours ago

TLE from 9 hours ago
0 STARLINK-37507
1 68916U 26097X   26140.58335648 -.02286902  00000-0 -29629-1 0  9999
2 68916  97.2851 336.3947 0002080  78.9377 112.9789 15.62098683  4469
Epoch: 2026-05-20T14:00Z
TLE epoch observation values (Epoch: 2026-05-20T14:00:01.999Z)
Latitude
-12.03912°
Longitude
66.59197°
Altitude
387.631 km
Speed
7.676 km/s
True Right ascension
10h 19m 21s
True Declination
-11° 57' 55"
Sunlit
Object was in daylight at epoch
Visualization orbit readout
Latitude
Unknown
Longitude
Unknown
Altitude
Unknown
Speed
Unknown
Apparent Right ascension
Unknown
Apparent Declination
Unknown
Sunlit
N/A
Visualization observer readout
Local Sidereal Time
07:25:59
Azimuth
Unknown
Elevation
Unknown
Doppler factor
Unknown
Orbital elements
Apogee altitude
379.906 km
Perigee altitude
377.095 km
Semi-major axis
6,756.638 km
Eccentricity
0.00021
Inclination
97.2851°
RAAN
336.3947°
Arg. of periapsis
78.9377°
True anomaly
113.00084°
Mean anomaly
112.9789°
Eccentric anomaly
112.98987°
Mean motion
3.90793 °/min
Orbital period
92.12 mins
BSTAR
-0.029629
Loading maneuver chart data...
Computing Atmospheric mass density...
Loading historical data...
Loading historical data...
Loading historical data...
Loading historical data...
Loading historical data...
Loading historical data...
Loading historical data...

Documentation

Showing up to 5 results
|